Troy, MI

9:30 PM EST on February 10, 2016 (GMT -0500)
Troy

Weather History for KVLL - October, 2013

Change the Weather History Date:

Monday, October 21, 2013

  Actual Average (KDET) Record (KDET)
Temperature  
Mean Temperature 50 °F -  
Max Temperature 57 °F 58 °F 79 °F (2007)
Min Temperature 42 °F 44 °F 27 °F (1952)
Degree Days  
Heating Degree Days 16    
Moisture  
Dew Point 42 °F    
Average Humidity 69    
Maximum Humidity 89    
Minimum Humidity 52    
Precipitation  
Precipitation 0.00 in - - ()
Sea Level Pressure  
Sea Level Pressure 29.86 in    
Wind  
Wind Speed 12 mph (SW)    
Max Wind Speed 17 mph    
Max Gust Speed 25 mph    
Visibility 10 miles    
Events Rain    
Averages and records for this station are not official NWS values.
T = Trace of Precipitation, MM = Missing Value Source: NWS Daily Summary

Daily Weather History Graph

Daily Weather History Graph

Search for Another Location

Airport or City:

Trip Planner

Search our weather history database for the weather conditions in past years. The results will help you decide how hot, cold, wet, or windy it might be!

Date:

Astronomy

Oct. 21, 2013 Rise Set
Actual Time 7:53 AM EDT 6:40 PM EDT
Civil Twilight 7:24 AM EDT 7:09 PM EDT
Nautical Twilight 6:51 AM EDT 7:42 PM EDT
Astronomical Twilight 6:19 AM EDT 8:14 PM EDT
Moon 8:29 PM EDT (10/21) 10:30 AM EDT (10/21)
Length of Visible Light 11h 44m
Length of Day
10h 47m
Waning Gibbous, 93% of the Moon is Illuminated
Oct 21
Waning Gibbous
Oct 26
Last Quarter
Nov 3
New
Nov 10
First Quarter
Nov 17
Full

Hourly Weather History & Observations

Time (EDT) Temp. Windchill Dew Point Humidity Pressure Visibility Wind Dir Wind Speed Gust Speed Precip Events Conditions
12:14 AM 57.2 °F - 40.1 °F 53% 29.87 in 10.0 mi SSW 12.7 mph 20.7 mph N/A   Mostly Cloudy
12:35 AM 57.4 °F - 39.7 °F 52% 29.86 in 10.0 mi SSW 15.0 mph 25.3 mph N/A   Overcast
12:54 AM 57.0 °F - 40.3 °F 54% 29.86 in 10.0 mi SSW 17.3 mph 24.2 mph N/A   Overcast
1:14 AM 57.0 °F - 40.1 °F 53% 29.86 in 10.0 mi SW 16.1 mph 23.0 mph N/A   Overcast
1:34 AM 56.7 °F - 40.1 °F 54% 29.86 in 10.0 mi SW 15.0 mph 21.9 mph N/A   Overcast
1:54 AM 56.5 °F - 40.1 °F 54% 29.86 in 10.0 mi SW 15.0 mph 23.0 mph N/A   Overcast
2:14 AM 56.3 °F - 40.1 °F 55% 29.86 in 10.0 mi SW 13.8 mph 23.0 mph N/A   Overcast
2:34 AM 56.3 °F - 40.3 °F 55% 29.87 in 10.0 mi SW 12.7 mph 20.7 mph N/A   Mostly Cloudy
2:54 AM 55.8 °F - 40.3 °F 56% 29.87 in 10.0 mi SSW 11.5 mph - N/A   Mostly Cloudy
3:14 AM 55.6 °F - 40.3 °F 56% 29.87 in 10.0 mi SW 16.1 mph 19.6 mph N/A   Overcast
3:34 AM 55.4 °F - 40.5 °F 57% 29.86 in 10.0 mi SSW 11.5 mph 18.4 mph N/A   Overcast
3:54 AM 55.4 °F - 40.5 °F 57% 29.86 in 10.0 mi SSW 12.7 mph 17.3 mph N/A   Overcast
4:15 AM 55.0 °F - 40.5 °F 58% 29.86 in 10.0 mi SSW 10.4 mph 17.3 mph N/A   Overcast
4:34 AM 55.0 °F - 40.5 °F 58% 29.86 in 10.0 mi SSW 10.4 mph 18.4 mph N/A   Overcast
4:55 AM 54.7 °F - 40.6 °F 59% 29.86 in 10.0 mi SSW 12.7 mph - N/A   Overcast
5:14 AM 54.7 °F - 40.8 °F 60% 29.86 in 10.0 mi SW 10.4 mph 17.3 mph N/A   Overcast
5:35 AM 54.5 °F - 41.0 °F 60% 29.86 in 10.0 mi SW 8.1 mph - N/A   Mostly Cloudy
5:54 AM 54.1 °F - 41.0 °F 61% 29.85 in 10.0 mi SW 9.2 mph - N/A   Scattered Clouds
6:15 AM 54.0 °F - 41.0 °F 62% 29.85 in 10.0 mi SSW 10.4 mph 17.3 mph N/A   Mostly Cloudy
6:34 AM 53.6 °F - 41.0 °F 62% 29.86 in 10.0 mi SW 12.7 mph 18.4 mph N/A   Scattered Clouds
6:55 AM 53.2 °F - 41.0 °F 63% 29.86 in 10.0 mi SSW 11.5 mph 16.1 mph N/A   Scattered Clouds
7:14 AM 52.9 °F - 41.0 °F 64% 29.86 in 10.0 mi SW 9.2 mph 16.1 mph N/A   Clear
7:34 AM 52.3 °F - 41.0 °F 65% 29.86 in 10.0 mi SSW 11.5 mph - N/A   Clear
7:54 AM 52.2 °F - 41.0 °F 66% 29.87 in 10.0 mi SW 12.7 mph 18.4 mph N/A   Scattered Clouds
8:14 AM 52.2 °F - 41.0 °F 66% 29.87 in 10.0 mi SW 12.7 mph 16.1 mph N/A   Scattered Clouds
8:34 AM 52.2 °F - 41.0 °F 66% 29.88 in 10.0 mi SW 11.5 mph - N/A   Scattered Clouds
8:54 AM 52.2 °F - 41.0 °F 66% 29.89 in 10.0 mi SW 10.4 mph - N/A   Scattered Clouds
9:14 AM 52.7 °F - 41.2 °F 65% 29.88 in 10.0 mi SW 10.4 mph - N/A   Scattered Clouds
9:34 AM 52.7 °F - 41.4 °F 65% 29.89 in 10.0 mi SW 9.2 mph 18.4 mph N/A   Scattered Clouds
9:55 AM 52.7 °F - 41.4 °F 65% 29.88 in 10.0 mi SSW 11.5 mph 17.3 mph N/A   Mostly Cloudy
10:14 AM 52.9 °F - 41.5 °F 65% 29.87 in 10.0 mi SSW 9.2 mph - N/A   Mostly Cloudy
10:34 AM 53.2 °F - 41.9 °F 65% 29.88 in 10.0 mi SW 10.4 mph - N/A   Overcast
10:54 AM 53.4 °F - 42.1 °F 65% 29.87 in 10.0 mi SW 11.5 mph 16.1 mph N/A   Overcast
11:14 AM 53.2 °F - 43.0 °F 68% 29.87 in 10.0 mi SW 10.4 mph - N/A Rain Light Rain
11:34 AM 53.1 °F - 44.6 °F 73% 29.88 in 10.0 mi SW 9.2 mph - N/A Rain Light Rain
11:54 AM 53.1 °F - 45.5 °F 75% 29.88 in 10.0 mi SW 11.5 mph - N/A   Light Drizzle
12:14 PM 53.1 °F - 45.7 °F 76% 29.87 in 10.0 mi SSW 9.2 mph - N/A Rain Rain
12:34 PM 52.9 °F - 46.4 °F 79% 29.87 in 7.0 mi SSW 11.5 mph 16.1 mph N/A Rain Light Rain
12:54 PM 52.7 °F - 46.4 °F 79% 29.87 in 10.0 mi SW 10.4 mph - N/A Rain Light Rain
1:14 PM 52.9 °F - 46.6 °F 79% 29.87 in 10.0 mi SSW 9.2 mph 18.4 mph N/A Rain Light Rain
1:35 PM 52.7 °F - 46.8 °F 80% 29.85 in 10.0 mi SW 11.5 mph 16.1 mph N/A Rain Light Rain
1:54 PM 53.1 °F - 47.1 °F 80% 29.85 in 10.0 mi SSW 10.4 mph 17.3 mph N/A Rain Rain
2:15 PM 53.2 °F - 47.7 °F 81% 29.85 in 10.0 mi SW 9.2 mph - N/A Rain Light Rain
2:34 PM 53.8 °F - 47.1 °F 78% 29.84 in 10.0 mi SSW 11.5 mph 18.4 mph N/A Rain Light Rain
2:55 PM 54.1 °F - 47.1 °F 77% 29.83 in 10.0 mi SW 10.4 mph 19.6 mph N/A Rain Light Rain
3:14 PM 54.1 °F - 47.1 °F 77% 29.83 in 10.0 mi SSW 12.7 mph 19.6 mph N/A Rain Light Rain
3:34 PM 53.8 °F - 46.9 °F 78% 29.82 in 10.0 mi SSW 12.7 mph 17.3 mph N/A Rain Light Rain
3:54 PM 53.1 °F - 47.3 °F 81% 29.82 in 10.0 mi SW 10.4 mph 20.7 mph N/A Rain Light Rain
4:14 PM 53.2 °F - 48.0 °F 82% 29.82 in 10.0 mi SSW 12.7 mph 18.4 mph N/A   Overcast
4:34 PM 53.4 °F - 47.8 °F 81% 29.82 in 10.0 mi SW 10.4 mph 19.6 mph N/A Rain Light Rain
4:54 PM 52.7 °F - 48.2 °F 85% 29.82 in 7.0 mi SW 11.5 mph - N/A Rain Rain
5:14 PM 52.2 °F - 48.4 °F 87% 29.83 in 4.0 mi WSW 8.1 mph 16.1 mph N/A Rain Rain
5:34 PM 51.6 °F - 48.4 °F 89% 29.83 in 3.0 mi WSW 10.4 mph - N/A Rain Light Rain
5:54 PM 51.4 °F - 47.8 °F 87% 29.84 in 10.0 mi WSW 6.9 mph - N/A   Overcast
6:14 PM 51.4 °F - 47.3 °F 86% 29.85 in 10.0 mi West 8.1 mph - N/A   Overcast
6:34 PM 51.1 °F - 45.9 °F 82% 29.85 in 10.0 mi WSW 9.2 mph - N/A   Overcast
6:54 PM 50.5 °F - 44.2 °F 79% 29.85 in 10.0 mi WSW 6.9 mph - N/A   Overcast
7:15 PM 50.0 °F - 43.5 °F 78% 29.86 in 10.0 mi West 8.1 mph - N/A   Overcast
7:34 PM 49.5 °F - 42.8 °F 78% 29.86 in 10.0 mi West 3.5 mph - N/A   Mostly Cloudy
7:54 PM 48.6 °F - 40.3 °F 73% 29.86 in 10.0 mi West 8.1 mph - N/A   Scattered Clouds
8:14 PM 48.2 °F - 40.1 °F 74% 29.86 in 10.0 mi WNW 10.4 mph - N/A   Mostly Cloudy
8:34 PM 48.2 °F - 38.1 °F 68% 29.86 in 10.0 mi West 11.5 mph 18.4 mph N/A   Overcast
8:55 PM 47.5 °F - 36.5 °F 66% 29.86 in 10.0 mi West 13.8 mph 20.7 mph N/A   Overcast
9:14 PM 46.8 °F - 36.1 °F 67% 29.86 in 10.0 mi West 6.9 mph - N/A   Mostly Cloudy
9:35 PM 45.9 °F 42.3 °F 36.0 °F 68% 29.87 in 10.0 mi WSW 6.9 mph - N/A   Scattered Clouds
9:54 PM 45.0 °F 41.2 °F 35.8 °F 70% 29.87 in 10.0 mi WSW 6.9 mph - N/A   Clear
10:15 PM 45.0 °F 41.2 °F 33.8 °F 65% 29.87 in 10.0 mi West 6.9 mph - N/A   Clear
10:34 PM 44.2 °F 41.8 °F 33.3 °F 65% 29.86 in 10.0 mi WSW 4.6 mph - N/A   Clear
10:54 PM 43.0 °F 39.5 °F 34.2 °F 71% 29.86 in 10.0 mi WSW 5.8 mph - N/A   Clear
11:15 PM 42.8 °F 40.1 °F 33.8 °F 70% 29.86 in 10.0 mi SW 4.6 mph - N/A   Clear
11:34 PM 42.3 °F 38.6 °F 34.0 °F 72% 29.85 in 10.0 mi SW 5.8 mph - N/A   Scattered Clouds
11:54 PM 42.8 °F 40.1 °F 34.2 °F 72% 29.85 in 10.0 mi WSW 4.6 mph - N/A   Overcast